Vorticity
nan nan nan nan nan nan nan nan nan nan nan nan nan nan nan nan nan nan nan nan nan nan nan nan nan nan nan nan nan nan nan nan nan nan nan nan nan nan nan nan nan nan nan nan nan nan nan nan nan nan nan nan nan nan nan nan nan nan nan nan nan nan nan nan nan nan nan nan nan
nan 3 3 6 9 9 11 9 7 5 -1 -2 3 5 6 6 6 7 7 8 9 8 8 8 9 9 9 7 4 3 2 1 1 1 2 3 4 4 4 6 7 7 7 7 6 7 7 6 5 6 7 8 10 11 11 12 13 13 13 10 9 11 12 11 11 12 11 8 nan
nan 10 6 6 6 6 7 9 11 8 -1 -2 4 6 6 6 6 7 8 8 9 9 9 10 10 10 10 8 6 6 5 4 3 3 4 5 6 7 8 9 11 11 11 9 8 7 7 5 6 8 11 12 12 12 12 13 15 14 12 9 9 11 13 12 11 9 8 9 nan
nan 17 13 12 10 5 3 9 15 8 0 -0 6 7 7 7 6 6 6 7 8 9 11 12 11 11 11 10 10 9 8 6 4 2 2 4 7 8 9 10 11 11 11 10 9 8 8 8 9 11 13 13 12 11 12 14 14 13 11 9 11 12 12 11 9 8 8 10 nan
nan 16 17 21 19 11 8 12 13 7 4 5 6 7 7 7 5 4 3 4 6 7 9 11 11 12 12 12 11 10 9 8 5 3 2 4 7 10 11 11 11 11 11 10 10 10 10 10 9 10 9 8 8 10 12 14 14 13 11 10 10 11 11 11 11 11 12 13 nan
nan 12 14 19 21 17 15 16 13 8 7 9 9 9 9 9 8 6 4 3 3 3 3 4 8 10 12 12 11 11 12 13 13 13 12 10 11 13 13 12 11 11 11 12 13 13 12 8 7 7 7 6 7 10 11 12 11 11 11 10 9 10 10 11 12 13 14 16 nan
nan 9 9 11 13 13 14 15 14 11 10 11 11 10 9 11 13 10 7 5 3 2 0 0 3 5 7 8 10 12 14 17 18 18 16 14 14 14 13 11 11 12 12 12 12 12 10 7 7 8 8 6 7 9 10 11 11 10 10 10 9 9 9 10 12 13 14 14 nan
nan 8 8 8 9 10 11 12 12 13 11 13 14 13 11 12 12 10 10 9 8 6 4 4 6 4 2 2 6 10 13 14 14 14 12 12 12 11 10 9 9 10 10 10 10 9 8 8 9 9 9 7 8 10 11 11 11 11 10 9 9 10 10 10 12 12 13 11 nan
nan 8 8 7 7 8 8 9 11 13 14 16 16 15 12 11 10 8 8 10 12 11 8 10 13 11 7 3 2 6 9 11 11 10 10 11 10 9 8 7 8 7 7 8 8 8 7 8 10 10 10 10 12 13 12 9 8 8 7 6 9 11 12 11 12 12 12 10 nan
nan 9 7 5 5 4 4 6 8 11 13 15 15 14 13 12 10 7 6 10 15 13 10 12 16 16 15 9 4 4 6 8 9 9 10 9 9 8 7 8 8 7 6 7 7 6 6 7 10 11 11 12 14 14 11 7 6 6 6 7 11 11 11 10 10 9 9 10 nan
nan 10 8 7 5 1 0 1 4 7 9 12 13 13 12 12 10 9 9 13 16 14 10 11 14 14 13 11 8 5 4 5 8 9 9 8 8 8 8 10 9 7 6 5 5 4 5 7 9 10 10 11 12 11 10 8 7 7 7 10 11 9 8 8 8 7 7 9 nan
nan 11 11 12 10 5 -0 -4 0 5 9 10 10 10 10 12 12 12 13 14 13 11 10 11 11 9 7 9 10 7 6 6 6 7 7 7 7 7 8 9 8 7 5 3 2 3 6 9 9 8 7 7 7 9 11 9 7 7 8 10 8 7 7 7 7 7 8 9 nan
nan 10 11 13 15 12 6 1 1 6 8 8 7 8 9 12 13 13 13 11 9 9 11 13 11 8 6 8 10 9 8 7 6 5 6 7 7 7 7 8 8 7 5 2 2 4 7 9 9 7 6 4 6 9 11 9 7 7 7 7 7 7 7 6 7 8 10 9 nan
nan 8 8 10 12 13 13 10 7 10 11 8 6 7 9 11 11 11 11 10 8 9 10 11 11 10 11 11 11 11 10 9 8 6 6 7 8 9 8 9 10 9 7 7 8 8 7 8 8 7 6 5 6 9 9 8 7 7 7 8 7 7 6 6 7 8 9 9 nan
nan 11 10 9 9 10 14 14 12 14 14 9 7 8 9 10 10 10 11 11 9 8 8 9 9 11 14 14 14 13 12 12 11 9 8 9 9 10 9 10 11 11 11 12 12 12 12 12 10 9 8 8 8 8 8 7 8 8 9 9 8 6 6 6 7 8 8 8 nan
nan 16 16 15 14 12 14 13 13 14 14 12 11 11 10 10 11 11 12 10 8 9 11 10 9 10 12 14 14 14 13 14 14 12 10 9 9 9 9 9 10 11 12 13 13 14 16 18 16 14 13 12 10 9 9 8 9 10 11 11 9 8 8 7 6 7 9 9 nan
nan 15 16 17 15 13 13 13 13 14 14 13 13 12 12 12 12 12 12 11 11 13 14 11 9 11 12 12 12 12 12 13 13 12 12 10 9 8 8 8 8 9 10 11 13 15 17 19 19 18 17 15 13 12 11 10 10 11 12 11 10 9 9 8 7 7 8 9 nan
nan 10 11 11 11 10 10 11 12 12 12 11 11 12 13 14 14 13 12 12 14 14 13 10 11 13 13 12 9 9 11 12 11 11 12 12 11 9 9 9 9 9 9 10 11 13 14 16 17 17 17 15 14 13 12 11 12 12 12 11 11 10 9 9 8 8 9 9 nan
nan 8 8 8 8 8 8 8 9 9 9 9 10 12 13 14 14 13 12 12 13 13 11 9 10 12 13 12 10 10 12 13 13 11 12 13 13 12 11 11 10 10 10 9 9 10 11 12 13 14 14 14 13 12 12 12 13 12 12 11 10 10 9 8 8 9 10 10 nan
nan 7 8 8 8 8 8 8 8 9 9 10 11 12 12 12 13 13 12 12 12 12 11 10 10 11 12 12 12 12 12 14 16 14 13 14 15 14 13 11 10 9 8 8 8 9 9 10 11 11 12 11 11 10 10 10 11 11 10 9 9 9 9 8 8 8 9 9 nan
nan 10 10 10 9 9 9 9 9 10 10 11 11 11 11 11 12 12 12 12 12 12 11 11 11 11 11 11 11 11 12 15 17 15 14 14 14 13 12 10 9 8 8 8 8 8 8 9 9 9 9 9 9 8 8 8 9 9 9 9 9 8 8 8 7 8 8 8 nan
nan 14 13 12 12 11 11 11 11 11 11 11 11 11 11 11 11 12 12 12 12 11 11 11 11 11 12 11 11 11 12 14 15 14 14 13 13 12 12 10 10 9 9 8 8 8 8 8 8 8 8 8 8 8 8 8 7 7 8 9 9 8 8 7 8 7 7 6 nan
nan 15 14 12 12 12 12 12 12 12 11 11 11 11 11 11 11 11 11 12 12 11 10 9 10 12 13 13 13 12 12 13 13 13 13 13 13 12 12 11 11 9 7 6 7 7 7 6 7 7 7 8 8 7 7 7 7 7 7 7 7 7 7 8 8 8 7 6 nan
nan 14 13 12 12 12 11 11 11 11 11 11 11 11 10 10 10 10 10 11 11 11 11 11 11 11 12 13 14 13 13 12 11 11 12 12 11 11 10 10 8 7 6 9 13 13 10 8 7 7 7 7 7 7 7 7 7 7 7 6 6 6 7 9 9 8 6 6 nan
nan 12 13 13 12 12 11 11 11 11 10 10 10 10 10 9 9 9 9 10 10 10 11 12 11 11 11 11 12 12 12 11 10 9 9 9 9 9 8 8 7 7 9 16 20 18 15 13 11 10 8 7 7 7 8 8 9 8 8 7 6 6 7 7 7 7 6 6 nan
nan 10 11 12 12 12 12 12 11 11 10 10 10 10 9 9 9 10 10 9 9 9 9 9 9 10 10 10 11 11 11 10 10 9 9 8 8 9 8 8 8 9 14 21 20 16 15 15 14 12 10 8 8 8 8 9 10 10 10 9 8 7 7 6 6 6 7 7 nan
nan 9 10 11 11 11 11 11 11 10 10 10 10 10 11 11 11 10 9 9 9 8 7 7 8 7 7 8 10 11 11 11 10 9 9 9 8 8 9 9 10 13 19 22 17 13 12 11 11 10 9 9 10 9 9 9 9 9 10 10 10 10 9 9 8 8 8 8 nan
nan 11 10 10 10 10 11 11 11 11 11 11 12 12 12 12 11 10 9 9 8 7 6 6 5 5 6 9 9 10 10 11 9 8 8 9 9 9 10 11 13 18 23 20 13 10 9 8 8 7 7 9 8 8 8 8 7 6 7 9 11 11 11 10 11 10 10 9 nan
nan 11 11 10 10 10 10 10 10 10 10 10 11 11 11 10 10 9 9 9 8 7 7 7 7 9 11 12 10 9 8 9 9 9 9 9 9 10 11 12 15 18 20 15 10 9 8 7 7 6 6 6 7 8 8 8 7 6 7 8 10 10 9 10 11 12 11 10 nan
nan 12 11 11 10 9 9 10 10 10 9 9 9 9 9 9 9 9 8 7 8 9 10 12 14 15 14 11 9 8 8 8 9 10 10 10 10 10 11 12 14 15 16 11 7 8 8 7 6 6 5 4 6 9 9 10 9 8 8 10 10 9 8 9 10 10 10 10 nan
nan 13 12 11 10 9 9 10 10 10 10 11 10 9 9 9 9 8 8 7 9 11 14 15 15 14 12 10 10 9 9 9 9 10 10 9 10 10 11 11 13 14 15 10 6 6 7 7 6 6 5 3 4 8 10 11 10 10 10 11 10 9 8 8 9 9 9 9 nan
nan 12 12 10 10 9 9 9 9 10 10 11 11 10 9 9 9 9 9 9 10 11 12 12 11 10 9 9 10 10 10 10 10 10 10 10 10 10 10 10 11 14 16 11 5 6 6 6 6 6 5 2 3 8 11 11 10 10 11 11 10 9 8 8 9 10 9 8 nan
nan 10 9 9 9 9 9 9 9 9 9 10 10 10 9 9 9 10 10 9 9 9 8 8 8 7 7 7 8 8 9 10 10 11 10 10 10 10 9 9 11 16 19 13 6 7 6 6 6 6 5 2 2 7 9 9 9 9 10 10 10 10 9 9 9 10 9 8 nan
nan 8 7 7 8 8 9 9 9 9 9 9 9 9 9 8 9 9 9 9 9 8 8 7 7 6 6 7 8 9 10 10 10 10 9 9 10 9 9 8 14 20 22 15 8 7 7 6 6 5 4 1 2 6 9 9 9 10 11 11 11 10 10 10 10 10 10 9 nan
nan 8 8 7 8 8 8 9 9 9 9 8 8 8 8 8 8 8 8 10 11 10 9 9 8 8 9 9 10 10 11 11 10 9 9 9 9 9 8 10 16 23 23 16 9 7 6 5 5 4 1 -1 3 7 9 9 10 11 11 10 10 10 10 9 9 10 10 10 nan
nan 8 9 9 9 8 8 8 9 9 9 8 8 8 8 8 7 7 8 9 10 10 10 9 9 9 9 9 10 10 11 10 9 9 8 8 8 8 8 10 16 21 20 14 8 7 6 5 4 2 -2 -2 4 8 9 9 10 11 10 9 9 10 9 9 9 9 10 11 nan
nan 8 9 9 9 9 9 9 9 9 9 9 8 7 7 7 7 7 8 8 9 9 8 8 9 10 9 9 11 12 12 11 10 9 8 8 7 7 8 10 13 17 18 14 8 6 5 5 3 -0 -3 -0 6 9 9 9 10 11 11 10 10 10 9 9 9 9 10 11 nan
nan 8 8 8 9 9 10 10 10 10 9 9 8 8 7 6 6 7 8 9 9 8 8 9 9 10 10 11 12 12 13 11 10 9 9 8 8 8 8 9 11 14 18 15 9 6 5 4 2 -0 -3 2 8 9 9 9 10 10 10 10 11 11 10 9 9 10 11 13 nan
nan 9 9 8 9 9 10 10 10 9 9 8 8 9 8 7 8 8 9 10 10 9 9 9 10 10 11 11 12 12 11 11 11 10 9 9 10 10 10 8 9 13 18 17 11 7 6 5 3 1 -2 1 7 8 9 9 10 10 10 10 11 11 11 9 9 10 12 14 nan
nan 10 10 10 9 9 9 9 9 9 8 9 9 8 7 8 9 10 9 10 11 10 10 10 11 11 10 10 11 11 10 11 11 11 11 12 12 11 10 9 9 12 17 18 13 8 6 5 3 1 -4 -0 6 8 9 9 10 9 9 10 11 11 11 10 10 11 11 12 nan
nan nan nan nan nan nan nan nan nan nan nan nan nan nan nan nan nan nan nan nan nan nan nan nan nan nan nan nan nan nan nan nan nan nan nan nan nan nan nan nan nan nan nan nan nan nan nan nan nan nan nan nan nan nan nan nan nan nan nan nan nan nan nan nan nan nan nan nan nan
CAPE
39 31 31 32 20 20 24 23 12 12 29 101 104 93 93 104 170 224 224 237 195 182 182 162 120 74 74 41 43 43 45 39 24 10 10 16 44 44 44 41 34 35 35 36 13 13 10 9 17 17 26 35 62 65 65 43 52 52 52 26 9 20 20 68 108 108 104 61 45
50 34 34 21 13 13 6 0 3 3 13 62 88 75 75 77 105 131 131 135 137 111 111 101 74 61 61 26 13 13 20 25 18 10 10 19 35 39 39 25 25 25 25 25 11 11 9 13 22 22 43 60 68 43 43 21 39 49 49 30 17 37 37 61 98 98 35 23 49
69 33 33 19 9 9 3 4 19 19 17 28 71 62 62 66 72 88 88 85 53 51 51 50 43 43 43 39 24 24 24 29 32 29 29 26 26 23 23 33 32 23 23 26 31 31 30 46 35 35 25 30 29 17 17 4 12 8 8 nan nan 3 3 4 nan nan nan 2 54
91 52 52 18 8 8 12 19 24 24 25 58 59 59 59 67 60 59 59 57 54 34 34 33 39 51 51 58 49 49 44 29 33 33 33 33 22 19 19 33 33 17 17 5 1 1 nan 1 nan nan nan nan nan nan nan nan nan nan nan nan nan nan nan nan nan nan nan nan nan
110 94 94 47 14 14 31 51 39 39 50 57 67 73 73 58 54 54 54 53 51 24 24 22 40 64 64 69 66 66 56 33 13 33 33 30 30 26 26 6 nan nan nan nan nan nan nan nan nan nan nan nan nan nan nan nan nan nan nan nan nan nan nan nan nan nan nan nan nan
103 89 89 101 78 78 87 73 74 74 108 83 83 77 77 67 53 52 52 57 42 17 17 10 17 32 32 57 57 57 45 31 19 22 22 12 9 3 3 nan nan nan nan nan nan nan nan nan nan nan nan nan nan nan nan nan nan nan nan nan nan nan nan nan nan nan nan nan nan
99 97 97 114 130 130 118 93 120 120 136 129 111 98 98 75 56 49 49 41 23 14 14 9 9 18 18 41 31 31 20 18 11 3 3 0 nan nan nan nan nan nan nan nan nan nan nan nan nan nan nan nan nan nan nan nan nan nan nan nan nan nan nan nan nan nan nan nan nan
110 112 112 112 118 118 84 69 91 91 114 133 129 104 104 79 62 54 54 26 10 8 8 10 13 11 11 15 11 11 4 2 0 nan nan nan nan nan nan nan nan nan nan nan nan nan nan nan nan nan nan nan nan nan nan nan nan nan nan nan nan nan nan nan nan nan nan nan nan
108 118 118 114 101 101 78 50 38 38 49 74 99 98 98 79 60 46 46 21 4 0 0 1 5 4 4 0 nan nan nan nan nan nan nan nan nan nan nan nan nan nan nan nan nan nan nan nan nan nan nan nan nan nan nan nan nan nan nan nan nan nan nan nan nan nan nan nan nan
98 104 104 104 96 96 71 40 17 17 10 26 42 52 52 32 41 33 33 8 nan nan nan nan nan 1 1 nan nan nan nan nan nan nan nan nan nan nan nan nan nan nan nan nan nan nan nan nan nan nan nan nan nan nan nan nan nan nan nan nan nan nan nan nan nan nan nan nan nan
70 77 77 85 80 80 63 41 12 12 2 4 8 13 13 11 15 11 11 nan nan nan nan nan nan nan nan nan nan nan nan nan nan nan nan nan nan nan nan nan nan nan nan nan nan nan nan nan nan nan nan nan nan nan nan nan nan nan nan nan nan nan nan nan nan nan nan nan nan
49 58 58 67 71 71 53 36 13 13 1 nan nan 0 0 1 1 nan nan nan nan nan nan nan nan nan nan nan nan nan nan nan nan nan nan nan nan nan nan nan nan nan nan nan nan nan nan nan nan nan nan nan nan nan nan nan nan nan nan nan nan nan nan nan nan nan nan nan nan
50 57 57 64 71 71 42 17 6 6 0 nan nan nan nan nan nan nan nan nan nan nan nan nan nan nan nan nan nan nan nan nan nan nan nan nan nan nan nan nan nan nan nan nan nan nan nan nan nan nan nan nan nan nan nan nan nan nan nan nan nan nan nan nan nan nan nan nan nan
53 60 60 71 68 68 43 8 1 1 nan nan nan nan nan nan nan nan nan nan nan nan nan nan nan nan nan nan nan nan nan nan nan nan nan nan nan nan nan nan nan nan nan nan nan nan nan nan nan nan nan nan nan nan nan nan nan nan nan nan nan nan nan nan nan nan nan nan nan
35 47 47 59 59 59 43 13 nan nan nan nan nan nan nan nan nan nan nan nan nan nan nan nan nan nan nan nan nan nan nan nan nan nan nan nan nan nan nan nan nan nan nan nan nan nan nan nan nan nan nan nan nan nan nan nan nan nan nan nan nan nan nan nan nan nan nan nan nan
4 6 6 10 12 12 9 6 1 1 nan nan nan nan nan nan nan nan nan nan nan nan nan nan nan nan nan nan nan nan nan nan nan nan nan nan nan nan nan nan nan nan nan nan nan nan nan nan nan nan nan nan nan nan nan nan nan nan nan nan nan nan nan nan nan nan nan nan nan
nan nan nan nan nan nan nan nan nan nan nan nan nan nan nan nan nan nan nan nan nan nan nan nan nan nan nan nan nan nan nan nan nan nan nan nan nan nan nan nan nan nan nan nan nan nan nan nan nan nan nan nan nan nan nan nan nan nan nan nan nan nan nan nan nan nan nan nan nan
0 nan nan nan nan nan nan nan nan nan nan nan nan nan nan nan nan nan nan nan nan nan nan nan nan nan nan nan nan nan nan nan nan nan nan nan nan nan nan nan nan nan nan nan nan nan nan nan nan nan nan nan nan nan nan nan nan nan nan nan nan nan nan nan nan nan nan nan nan
nan nan nan nan nan nan nan nan nan nan nan nan nan nan nan nan nan nan nan nan nan nan nan nan nan nan nan nan nan nan nan nan nan nan nan nan nan nan nan nan nan nan nan nan nan nan nan nan nan nan nan nan nan nan nan nan nan nan nan nan nan nan nan nan nan nan nan nan nan
nan nan nan nan nan nan nan nan nan nan nan nan nan nan nan nan nan nan nan nan nan nan nan nan nan nan nan nan nan nan nan nan nan nan nan nan nan nan nan nan nan nan nan nan nan nan nan nan nan nan nan nan nan nan nan nan nan nan nan nan nan nan nan nan nan nan nan nan nan
nan nan nan nan nan nan nan nan nan nan nan nan nan nan nan nan nan nan nan nan nan nan nan nan nan nan nan nan nan nan nan nan nan nan nan nan nan nan nan nan nan nan nan nan nan nan nan nan nan nan nan nan nan nan nan nan nan nan nan nan nan nan nan nan nan nan nan nan nan
nan nan nan nan nan nan nan nan nan nan nan nan nan nan nan nan nan nan nan nan nan nan nan nan nan nan nan nan nan nan nan nan nan nan nan nan nan nan nan nan nan nan nan nan nan nan nan nan nan nan nan nan nan nan nan nan nan nan nan nan nan nan nan nan nan nan nan nan nan
nan nan nan nan nan nan nan nan nan nan nan nan nan nan nan nan nan nan nan nan nan nan nan nan nan nan nan nan nan nan nan nan nan nan nan nan nan nan nan nan nan nan nan nan nan nan nan nan nan nan nan nan nan nan nan nan nan nan nan nan nan nan nan nan nan nan nan nan nan
nan nan nan nan nan nan nan nan nan nan nan nan nan nan nan nan nan nan nan nan nan nan nan nan nan nan nan nan nan nan nan nan nan nan nan nan nan nan nan nan nan nan nan nan nan nan nan nan nan nan nan nan nan nan nan nan nan nan nan nan nan nan nan nan nan nan nan nan nan
nan nan nan nan nan nan nan nan nan nan nan nan nan nan nan nan nan nan nan nan nan nan nan nan nan nan nan nan nan nan nan nan nan nan nan nan nan nan nan nan nan nan nan nan 0 0 0 nan nan nan nan nan nan nan nan nan nan nan nan nan nan nan nan nan nan nan nan nan nan
nan nan nan nan nan nan nan nan nan nan nan nan nan nan nan nan nan nan nan nan nan nan nan nan nan nan nan nan nan nan nan nan nan nan nan nan nan nan nan nan nan nan nan nan 1 1 2 2 1 1 nan nan nan nan nan nan nan nan nan nan nan nan nan nan nan nan nan nan nan
nan nan nan nan nan nan nan nan nan nan nan nan nan nan nan nan nan nan nan nan nan nan nan nan nan nan nan nan nan nan nan nan nan nan nan nan nan nan nan nan nan nan nan 0 3 3 4 4 3 3 nan nan nan nan nan nan nan nan nan nan nan nan nan nan nan nan nan nan nan
nan nan nan nan nan nan nan nan nan nan nan nan nan nan nan nan nan nan nan nan nan nan nan nan nan nan nan nan nan nan nan nan nan nan nan nan nan nan nan nan nan nan nan 3 5 5 4 4 3 3 1 nan nan nan nan nan nan nan nan nan nan nan nan nan nan nan nan nan nan
nan nan nan nan nan nan nan nan nan nan nan nan nan nan nan nan nan nan nan nan nan nan nan nan nan nan nan nan nan nan nan nan nan nan nan nan nan nan nan nan nan 0 0 4 5 5 4 3 2 2 0 nan nan nan nan nan nan nan nan nan nan nan nan nan nan nan nan nan nan
nan nan nan nan nan nan nan nan nan nan nan nan nan nan nan nan nan nan nan nan nan nan nan nan nan nan nan nan nan nan nan nan nan nan nan nan nan nan nan nan nan 0 0 6 4 4 2 1 0 0 nan nan nan nan nan nan nan nan nan nan nan nan nan nan nan nan nan nan nan
nan nan nan nan nan nan nan nan nan nan nan nan nan nan nan nan nan nan nan nan nan nan nan nan nan nan nan nan nan nan nan nan nan nan nan nan nan nan nan nan nan 0 0 4 3 3 1 0 nan nan nan nan nan nan nan nan nan nan nan nan nan nan nan nan nan nan nan nan nan
nan nan nan nan nan nan nan nan nan nan nan nan nan nan nan nan nan nan nan nan nan nan nan nan nan nan nan nan nan nan nan nan nan nan nan nan nan nan nan nan nan 0 0 4 3 3 2 0 nan nan nan nan nan nan nan nan nan nan nan nan nan nan nan nan nan nan nan nan nan
nan nan nan nan nan nan nan nan nan nan nan nan nan nan nan nan nan nan nan nan nan nan nan nan nan nan nan nan nan nan nan nan nan nan nan nan nan nan nan nan nan 2 2 5 5 5 3 1 0 0 nan nan nan nan nan nan nan nan nan nan nan nan nan nan nan nan nan nan nan
nan nan nan nan nan nan nan 0 0 0 nan nan nan nan nan nan nan nan nan nan nan nan nan nan nan nan nan nan nan nan nan nan nan nan nan nan nan nan nan nan nan 4 4 8 5 5 3 1 0 0 nan nan nan nan nan nan nan nan nan nan nan nan nan nan nan nan nan nan nan
nan nan nan nan nan nan nan 0 0 0 0 0 0 0 0 nan nan nan nan nan nan nan nan nan nan nan nan nan nan nan nan nan nan nan nan nan nan nan nan nan nan 4 4 8 4 4 3 1 0 0 nan nan nan nan nan nan nan nan nan nan nan nan nan nan nan nan nan nan nan
nan nan nan nan nan nan nan nan nan nan nan 0 0 0 0 nan nan nan nan nan nan nan nan nan nan nan nan nan nan nan nan nan nan nan nan nan nan nan nan nan nan 3 3 7 3 3 2 1 0 0 nan nan nan nan nan nan nan nan nan nan nan nan nan nan nan nan nan nan nan
nan nan nan nan nan nan nan nan nan nan nan nan nan nan nan nan nan nan nan nan nan nan nan nan nan nan nan nan nan nan nan nan nan nan nan nan nan nan nan nan nan 0 0 5 2 2 2 1 0 0 nan nan nan nan nan nan nan nan nan nan nan nan nan nan nan nan nan nan nan
nan nan nan nan nan nan nan nan nan nan nan nan nan nan nan nan nan nan nan nan nan nan nan nan nan nan nan nan nan nan nan nan nan nan nan nan nan nan nan nan nan nan nan 3 4 4 2 2 2 2 nan nan nan nan nan nan nan nan nan nan nan nan nan nan nan nan nan nan nan
nan nan nan nan nan nan nan nan nan nan nan nan nan nan nan nan nan nan nan nan nan nan nan nan nan nan nan nan nan nan nan nan nan nan nan nan nan nan nan nan nan nan nan 3 5 5 5 4 4 4 nan nan nan nan nan nan nan nan nan nan nan nan nan nan nan nan nan nan nan
nan nan nan nan nan nan nan nan nan nan nan nan nan nan nan nan nan nan nan nan nan nan nan nan nan nan nan nan nan nan nan nan nan nan nan nan nan nan nan nan nan nan nan 4 9 9 8 6 5 5 1 nan nan nan nan nan nan nan nan nan nan nan nan nan nan nan nan nan nan
nan nan nan nan nan nan nan nan nan nan nan nan nan nan nan nan nan nan nan nan nan nan nan nan nan nan nan nan nan nan nan nan nan nan nan nan nan nan nan nan nan nan nan 1 12 12 12 9 6 6 3 nan nan nan nan nan nan nan nan nan nan nan nan nan nan nan nan nan nan